Time,TemperatureF,DewpointF,PressureIn,WindDirection,WindDirectionDegrees,WindSpeedMPH,WindSpeedGustMPH,Humidity,HourlyPrecipIn,Conditions,Clouds,dailyrainin,SoftwareType,DateUTC
2019-03-19 00:00:41,38.9,35.0,30.16,ENE,57,0.0,0.0,86,0.00,,,0.00,weatherlink.com 1.10,2019-03-18 23:00:41,
2019-03-19 00:05:42,38.8,36.0,30.16,ENE,57,0.0,0.0,88,0.00,,,0.00,weatherlink.com 1.10,2019-03-18 23:05:42,
2019-03-19 00:10:42,38.7,36.0,30.16,ENE,57,0.0,0.0,88,0.00,,,0.00,weatherlink.com 1.10,2019-03-18 23:10:42,
2019-03-19 00:15:43,38.6,35.0,30.16,ENE,57,0.0,0.0,88,0.00,,,0.00,weatherlink.com 1.10,2019-03-18 23:15:43,
2019-03-19 00:20:43,38.6,35.0,30.16,ENE,57,0.0,0.0,88,0.00,,,0.00,weatherlink.com 1.10,2019-03-18 23:20:43,
2019-03-19 00:25:45,38.5,36.0,30.16,ENE,57,0.0,0.0,89,0.00,,,0.00,weatherlink.com 1.10,2019-03-18 23:25:45,
2019-03-19 00:30:45,38.5,36.0,30.16,ENE,57,0.0,0.0,89,0.00,,,0.00,weatherlink.com 1.10,2019-03-18 23:30:45,
2019-03-19 00:35:45,38.4,36.0,30.16,ENE,57,0.0,0.0,89,0.00,,,0.00,weatherlink.com 1.10,2019-03-18 23:35:45,
2019-03-19 00:40:45,38.3,36.0,30.16,ENE,57,0.0,0.0,90,0.00,,,0.00,weatherlink.com 1.10,2019-03-18 23:40:45,
2019-03-19 00:45:46,38.3,35.0,30.16,ENE,57,0.0,0.0,89,0.00,,,0.00,weatherlink.com 1.10,2019-03-18 23:45:46,
2019-03-19 00:50:46,38.2,35.0,30.16,ENE,57,0.0,0.0,89,0.00,,,0.00,weatherlink.com 1.10,2019-03-18 23:50:46,
2019-03-19 00:55:47,38.1,35.0,30.16,ENE,57,0.0,1.0,89,0.00,,,0.00,weatherlink.com 1.10,2019-03-18 23:55:47,
2019-03-19 01:00:47,38.1,35.0,30.16,ENE,57,0.0,0.0,89,0.00,,,0.00,weatherlink.com 1.10,2019-03-19 00:00:47,
2019-03-19 01:05:47,38.1,35.0,30.16,ENE,57,0.0,0.0,89,0.00,,,0.00,weatherlink.com 1.10,2019-03-19 00:05:47,
2019-03-19 01:10:47,38.0,35.0,30.16,ENE,57,0.0,1.0,89,0.00,,,0.00,weatherlink.com 1.10,2019-03-19 00:10:47,
2019-03-19 01:15:47,37.9,35.0,30.16,ENE,57,0.0,1.0,89,0.00,,,0.00,weatherlink.com 1.10,2019-03-19 00:15:47,
2019-03-19 01:20:48,37.8,35.0,30.16,ENE,57,0.0,0.0,89,0.00,,,0.00,weatherlink.com 1.10,2019-03-19 00:20:48,
2019-03-19 01:25:49,37.6,35.0,30.16,ENE,57,0.0,0.0,89,0.00,,,0.00,weatherlink.com 1.10,2019-03-19 00:25:49,
2019-03-19 01:30:50,37.5,35.0,30.16,ENE,57,0.0,0.0,89,0.00,,,0.00,weatherlink.com 1.10,2019-03-19 00:30:50,
2019-03-19 01:35:50,37.5,35.0,30.16,ENE,57,0.0,0.0,89,0.00,,,0.00,weatherlink.com 1.10,2019-03-19 00:35:50,
2019-03-19 01:40:50,37.5,35.0,30.16,ENE,57,0.0,0.0,90,0.00,,,0.00,weatherlink.com 1.10,2019-03-19 00:40:50,
2019-03-19 01:45:51,37.5,35.0,30.16,ENE,57,0.0,0.0,90,0.00,,,0.00,weatherlink.com 1.10,2019-03-19 00:45:51,
2019-03-19 01:50:51,37.3,34.0,30.16,ENE,57,0.0,0.0,89,0.00,,,0.00,weatherlink.com 1.10,2019-03-19 00:50:51,
2019-03-19 01:55:52,37.2,35.0,30.16,ENE,57,0.0,0.0,90,0.00,,,0.00,weatherlink.com 1.10,2019-03-19 00:55:52,
2019-03-19 02:00:52,37.0,34.0,30.15,ENE,57,0.0,0.0,90,0.00,,,0.00,weatherlink.com 1.10,2019-03-19 01:00:52,
2019-03-19 02:05:53,37.0,34.0,30.15,ENE,57,0.0,0.0,90,0.00,,,0.00,weatherlink.com 1.10,2019-03-19 01:05:53,
2019-03-19 02:10:53,37.0,34.0,30.15,ENE,57,0.0,0.0,90,0.00,,,0.00,weatherlink.com 1.10,2019-03-19 01:10:53,
2019-03-19 02:15:54,37.1,35.0,30.15,ENE,57,0.0,0.0,90,0.00,,,0.00,weatherlink.com 1.10,2019-03-19 01:15:54,
2019-03-19 02:20:54,37.0,34.0,30.15,ENE,57,0.0,0.0,90,0.00,,,0.00,weatherlink.com 1.10,2019-03-19 01:20:54,
2019-03-19 02:25:55,37.0,34.0,30.15,ENE,57,0.0,0.0,90,0.00,,,0.00,weatherlink.com 1.10,2019-03-19 01:25:55,
2019-03-19 02:30:55,36.9,34.0,30.15,ENE,57,0.0,0.0,90,0.00,,,0.00,weatherlink.com 1.10,2019-03-19 01:30:55,
2019-03-19 02:35:55,36.8,34.0,30.15,ENE,57,0.0,0.0,90,0.00,,,0.00,weatherlink.com 1.10,2019-03-19 01:35:55,
2019-03-19 02:40:55,36.8,34.0,30.15,ENE,57,0.0,0.0,90,0.00,,,0.00,weatherlink.com 1.10,2019-03-19 01:40:55,
2019-03-19 02:45:56,36.8,34.0,30.15,ENE,57,0.0,0.0,90,0.00,,,0.00,weatherlink.com 1.10,2019-03-19 01:45:56,
2019-03-19 02:50:56,36.9,34.0,30.15,ENE,57,0.0,0.0,90,0.00,,,0.00,weatherlink.com 1.10,2019-03-19 01:50:56,
2019-03-19 02:55:57,37.0,34.0,30.14,ENE,57,0.0,0.0,90,0.00,,,0.00,weatherlink.com 1.10,2019-03-19 01:55:57,
2019-03-19 03:00:57,37.1,35.0,30.14,ENE,57,0.0,0.0,90,0.00,,,0.00,weatherlink.com 1.10,2019-03-19 02:00:57,
2019-03-19 03:05:57,37.1,35.0,30.14,ENE,57,0.0,0.0,90,0.00,,,0.00,weatherlink.com 1.10,2019-03-19 02:05:57,
2019-03-19 03:10:57,37.0,34.0,30.14,ENE,57,0.0,0.0,90,0.00,,,0.00,weatherlink.com 1.10,2019-03-19 02:10:57,
2019-03-19 03:15:58,37.0,34.0,30.14,ENE,57,0.0,0.0,90,0.00,,,0.00,weatherlink.com 1.10,2019-03-19 02:15:58,
2019-03-19 03:20:58,37.1,35.0,30.14,ENE,57,0.0,0.0,90,0.00,,,0.00,weatherlink.com 1.10,2019-03-19 02:20:58,
2019-03-19 03:25:59,37.1,35.0,30.14,ENE,57,0.0,0.0,90,0.00,,,0.00,weatherlink.com 1.10,2019-03-19 02:25:59,
2019-03-19 03:30:59,37.1,35.0,30.14,ENE,57,0.0,0.0,90,0.00,,,0.00,weatherlink.com 1.10,2019-03-19 02:30:59,
2019-03-19 03:35:59,37.1,35.0,30.14,ENE,57,0.0,0.0,90,0.00,,,0.00,weatherlink.com 1.10,2019-03-19 02:35:59,
2019-03-19 03:40:59,37.2,35.0,30.14,ENE,57,0.0,0.0,90,0.00,,,0.00,weatherlink.com 1.10,2019-03-19 02:40:59,
2019-03-19 03:46:00,37.3,34.0,30.14,ENE,57,0.0,0.0,89,0.00,,,0.00,weatherlink.com 1.10,2019-03-19 02:46:00,
2019-03-19 03:50:00,37.4,35.0,30.14,ENE,57,0.0,0.0,89,0.00,,,0.00,weatherlink.com 1.10,2019-03-19 02:50:00,
2019-03-19 03:55:00,37.6,35.0,30.14,ENE,57,0.0,0.0,89,0.00,,,0.00,weatherlink.com 1.10,2019-03-19 02:55:00,
2019-03-19 04:00:00,37.8,35.0,30.14,ENE,57,0.0,0.0,89,0.00,,,0.00,weatherlink.com 1.10,2019-03-19 03:00:00,
2019-03-19 04:05:59,38.1,35.0,30.15,ENE,57,0.0,0.0,89,0.00,,,0.00,weatherlink.com 1.10,2019-03-19 03:05:59,
2019-03-19 04:10:01,38.1,35.0,30.15,ENE,57,0.0,0.0,88,0.00,,,0.00,weatherlink.com 1.10,2019-03-19 03:10:01,
2019-03-19 04:15:00,38.3,35.0,30.15,ENE,57,0.0,0.0,88,0.00,,,0.00,weatherlink.com 1.10,2019-03-19 03:15:00,
2019-03-19 04:20:00,38.4,36.0,30.15,ENE,57,0.0,0.0,89,0.00,,,0.00,weatherlink.com 1.10,2019-03-19 03:20:00,
2019-03-19 04:25:01,38.5,35.0,30.15,ENE,57,0.0,1.0,88,0.00,,,0.00,weatherlink.com 1.10,2019-03-19 03:25:01,
2019-03-19 04:30:01,38.7,36.0,30.15,ENE,57,0.0,0.0,88,0.00,,,0.00,weatherlink.com 1.10,2019-03-19 03:30:01,
2019-03-19 04:35:01,38.9,35.0,30.15,SSW,206,0.0,3.0,85,0.00,,,0.00,weatherlink.com 1.10,2019-03-19 03:35:01,
2019-03-19 04:40:02,39.2,34.0,30.15,East,80,0.0,5.0,82,0.00,,,0.00,weatherlink.com 1.10,2019-03-19 03:40:02,
2019-03-19 04:45:04,39.8,34.0,30.16,ESE,103,1.0,5.0,81,0.00,,,0.00,weatherlink.com 1.10,2019-03-19 03:45:04,
2019-03-19 04:50:04,39.9,35.0,30.16,ESE,103,0.0,3.0,81,0.00,,,0.00,weatherlink.com 1.10,2019-03-19 03:50:04,
2019-03-19 04:55:04,39.9,34.0,30.16,ESE,103,0.0,1.0,80,0.00,,,0.00,weatherlink.com 1.10,2019-03-19 03:55:04,
2019-03-19 05:00:05,39.8,34.0,30.16,ESE,103,0.0,0.0,81,0.00,,,0.00,weatherlink.com 1.10,2019-03-19 04:00:05,
2019-03-19 05:05:05,39.8,36.0,30.16,ESE,103,0.0,0.0,86,0.00,,,0.00,weatherlink.com 1.10,2019-03-19 04:05:05,
2019-03-19 05:10:05,39.7,34.0,30.16,ESE,103,0.0,0.0,81,0.00,,,0.00,weatherlink.com 1.10,2019-03-19 04:10:05,
2019-03-19 05:15:06,39.6,34.0,30.16,ESE,103,0.0,0.0,80,0.00,,,0.00,weatherlink.com 1.10,2019-03-19 04:15:06,
2019-03-19 05:20:05,39.5,34.0,30.16,ESE,103,0.0,0.0,80,0.00,,,0.00,weatherlink.com 1.10,2019-03-19 04:20:05,
2019-03-19 05:25:06,39.6,34.0,30.16,ESE,103,0.0,0.0,80,0.00,,,0.00,weatherlink.com 1.10,2019-03-19 04:25:06,
2019-03-19 05:30:08,39.6,34.0,30.17,ESE,103,0.0,0.0,81,0.00,,,0.00,weatherlink.com 1.10,2019-03-19 04:30:08,
2019-03-19 05:35:08,39.5,34.0,30.17,ESE,103,0.0,0.0,81,0.00,,,0.00,weatherlink.com 1.10,2019-03-19 04:35:08,
2019-03-19 05:40:08,39.5,34.0,30.17,ESE,103,0.0,0.0,81,0.00,,,0.00,weatherlink.com 1.10,2019-03-19 04:40:08,
2019-03-19 05:45:08,39.4,34.0,30.17,ESE,103,0.0,0.0,81,0.00,,,0.00,weatherlink.com 1.10,2019-03-19 04:45:08,
2019-03-19 05:50:09,39.3,34.0,30.17,ESE,103,0.0,0.0,82,0.00,,,0.00,weatherlink.com 1.10,2019-03-19 04:50:09,
2019-03-19 05:55:10,39.3,34.0,30.18,ESE,103,0.0,0.0,82,0.00,,,0.00,weatherlink.com 1.10,2019-03-19 04:55:10,
2019-03-19 06:00:10,39.4,34.0,30.18,ESE,103,0.0,0.0,82,0.00,,,0.00,weatherlink.com 1.10,2019-03-19 05:00:10,
2019-03-19 06:05:11,39.5,34.0,30.18,ESE,103,0.0,0.0,82,0.00,,,0.00,weatherlink.com 1.10,2019-03-19 05:05:11,
2019-03-19 06:10:11,39.5,34.0,30.18,ESE,103,0.0,0.0,82,0.00,,,0.00,weatherlink.com 1.10,2019-03-19 05:10:11,
2019-03-19 06:15:12,39.6,35.0,30.18,ESE,103,0.0,0.0,82,0.00,,,0.00,weatherlink.com 1.10,2019-03-19 05:15:12,
2019-03-19 06:20:13,39.6,34.0,30.18,ESE,103,0.0,0.0,81,0.00,,,0.00,weatherlink.com 1.10,2019-03-19 05:20:13,
2019-03-19 06:25:14,39.6,34.0,30.19,ESE,103,0.0,0.0,81,0.00,,,0.00,weatherlink.com 1.10,2019-03-19 05:25:14,
2019-03-19 06:30:14,39.5,34.0,30.19,ESE,103,0.0,0.0,81,0.00,,,0.00,weatherlink.com 1.10,2019-03-19 05:30:14,
2019-03-19 06:35:14,39.6,34.0,30.19,ESE,103,0.0,0.0,81,0.00,,,0.00,weatherlink.com 1.10,2019-03-19 05:35:14,
2019-03-19 06:40:15,39.5,34.0,30.19,ESE,103,0.0,0.0,82,0.00,,,0.00,weatherlink.com 1.10,2019-03-19 05:40:15,
2019-03-19 06:45:15,39.4,34.0,30.19,ESE,103,0.0,0.0,81,0.00,,,0.00,weatherlink.com 1.10,2019-03-19 05:45:15,
2019-03-19 06:50:15,39.4,34.0,30.19,ESE,103,0.0,0.0,80,0.00,,,0.00,weatherlink.com 1.10,2019-03-19 05:50:15,
2019-03-19 06:55:16,39.4,34.0,30.20,ESE,103,0.0,0.0,81,0.00,,,0.00,weatherlink.com 1.10,2019-03-19 05:55:16,
2019-03-19 07:00:17,39.3,34.0,30.20,ESE,103,0.0,0.0,82,0.00,,,0.00,weatherlink.com 1.10,2019-03-19 06:00:17,
2019-03-19 07:05:18,39.2,34.0,30.20,ESE,103,0.0,0.0,81,0.00,,,0.00,weatherlink.com 1.10,2019-03-19 06:05:18,
2019-03-19 07:10:19,39.2,33.0,30.20,ESE,103,0.0,1.0,79,0.00,,,0.00,weatherlink.com 1.10,2019-03-19 06:10:19,
2019-03-19 07:15:19,39.4,34.0,30.21,ESE,103,0.0,1.0,81,0.00,,,0.00,weatherlink.com 1.10,2019-03-19 06:15:19,
2019-03-19 07:20:20,39.5,34.0,30.21,ESE,103,0.0,0.0,82,0.00,,,0.00,weatherlink.com 1.10,2019-03-19 06:20:20,
2019-03-19 07:25:21,39.5,35.0,30.21,ESE,103,0.0,0.0,83,0.00,,,0.00,weatherlink.com 1.10,2019-03-19 06:25:21,
2019-03-19 07:30:21,39.6,35.0,30.21,ESE,103,0.0,0.0,83,0.00,,,0.00,weatherlink.com 1.10,2019-03-19 06:30:21,
2019-03-19 07:35:21,39.7,35.0,30.21,ESE,103,0.0,0.0,82,0.00,,,0.00,weatherlink.com 1.10,2019-03-19 06:35:21,
2019-03-19 07:40:22,40.0,35.0,30.21,ESE,103,0.0,0.0,82,0.00,,,0.00,weatherlink.com 1.10,2019-03-19 06:40:22,
2019-03-19 07:45:23,40.1,35.0,30.22,ESE,103,0.0,0.0,81,0.00,,,0.00,weatherlink.com 1.10,2019-03-19 06:45:23,
2019-03-19 07:50:23,40.2,35.0,30.22,ESE,103,0.0,0.0,81,0.00,,,0.00,weatherlink.com 1.10,2019-03-19 06:50:23,
2019-03-19 07:55:23,40.1,35.0,30.22,ESE,103,0.0,0.0,81,0.00,,,0.00,weatherlink.com 1.10,2019-03-19 06:55:23,
2019-03-19 08:00:24,40.2,35.0,30.22,ESE,103,0.0,0.0,81,0.00,,,0.00,weatherlink.com 1.10,2019-03-19 07:00:24,
2019-03-19 08:05:24,40.3,35.0,30.22,ESE,103,0.0,0.0,82,0.00,,,0.00,weatherlink.com 1.10,2019-03-19 07:05:24,
2019-03-19 08:10:25,40.4,36.0,30.23,ESE,103,0.0,0.0,83,0.00,,,0.00,weatherlink.com 1.10,2019-03-19 07:10:25,
2019-03-19 08:15:26,40.6,36.0,30.23,ESE,103,0.0,0.0,83,0.00,,,0.00,weatherlink.com 1.10,2019-03-19 07:15:26,
2019-03-19 08:20:27,40.6,36.0,30.23,ESE,103,0.0,0.0,83,0.00,,,0.00,weatherlink.com 1.10,2019-03-19 07:20:27,
2019-03-19 08:25:28,40.7,36.0,30.23,ESE,103,0.0,0.0,83,0.00,,,0.00,weatherlink.com 1.10,2019-03-19 07:25:28,
2019-03-19 08:30:28,40.8,36.0,30.23,ESE,103,0.0,0.0,83,0.00,,,0.00,weatherlink.com 1.10,2019-03-19 07:30:28,
2019-03-19 08:35:29,41.1,36.0,30.23,ESE,103,0.0,0.0,83,0.00,,,0.00,weatherlink.com 1.10,2019-03-19 07:35:29,
2019-03-19 08:40:30,41.7,37.0,30.23,ESE,103,0.0,0.0,82,0.00,,,0.00,weatherlink.com 1.10,2019-03-19 07:40:30,
2019-03-19 08:45:32,42.3,37.0,30.24,ESE,103,0.0,0.0,81,0.00,,,0.00,weatherlink.com 1.10,2019-03-19 07:45:32,
2019-03-19 08:50:33,43.2,37.0,30.24,ESE,103,0.0,0.0,78,0.00,,,0.00,weatherlink.com 1.10,2019-03-19 07:50:33,
2019-03-19 08:55:34,44.3,35.0,30.24,ESE,103,0.0,0.0,71,0.00,,,0.00,weatherlink.com 1.10,2019-03-19 07:55:34,
2019-03-19 09:00:36,45.8,35.0,30.24,ESE,103,0.0,0.0,67,0.00,,,0.00,weatherlink.com 1.10,2019-03-19 08:00:36,
2019-03-19 09:05:37,46.9,36.0,30.24,ESE,103,0.0,1.0,66,0.00,,,0.00,weatherlink.com 1.10,2019-03-19 08:05:37,
2019-03-19 09:10:39,47.7,38.0,30.24,ESE,103,0.0,1.0,68,0.00,,,0.00,weatherlink.com 1.10,2019-03-19 08:10:39,
2019-03-19 09:15:40,48.4,35.0,30.24,ESE,103,0.0,1.0,60,0.00,,,0.00,weatherlink.com 1.10,2019-03-19 08:15:40,
2019-03-19 09:20:42,49.2,34.0,30.24,East,81,0.0,1.0,56,0.00,,,0.00,weatherlink.com 1.10,2019-03-19 08:20:42,
2019-03-19 09:25:44,50.4,34.0,30.24,SE,127,0.0,4.0,54,0.00,,,0.00,weatherlink.com 1.10,2019-03-19 08:25:44,
2019-03-19 09:30:45,51.2,34.0,30.24,SE,126,1.0,4.0,52,0.00,,,0.00,weatherlink.com 1.10,2019-03-19 08:30:45,
2019-03-19 09:35:46,51.5,33.0,30.24,SE,136,0.0,4.0,50,0.00,,,0.00,weatherlink.com 1.10,2019-03-19 08:35:46,
2019-03-19 09:40:47,51.5,32.0,30.24,South,169,1.0,6.0,48,0.00,,,0.00,weatherlink.com 1.10,2019-03-19 08:40:47,
2019-03-19 09:45:49,50.9,33.0,30.24,SSE,147,3.0,6.0,50,0.00,,,0.00,weatherlink.com 1.10,2019-03-19 08:45:49,
2019-03-19 09:50:49,50.5,33.0,30.25,South,182,2.0,7.0,51,0.00,,,0.00,weatherlink.com 1.10,2019-03-19 08:50:49,
2019-03-19 09:55:49,50.4,33.0,30.25,South,175,3.0,4.0,52,0.00,,,0.00,weatherlink.com 1.10,2019-03-19 08:55:49,
2019-03-19 10:00:49,50.3,32.0,30.24,SE,142,1.0,5.0,49,0.00,,,0.00,weatherlink.com 1.10,2019-03-19 09:00:49,
2019-03-19 10:05:49,50.3,31.0,30.25,SSE,154,3.0,7.0,48,0.00,,,0.00,weatherlink.com 1.10,2019-03-19 09:05:49,
2019-03-19 10:10:50,50.5,32.0,30.25,SSW,192,0.0,7.0,50,0.00,,,0.00,weatherlink.com 1.10,2019-03-19 09:10:50,
2019-03-19 10:15:50,51.0,32.0,30.25,SSE,167,0.0,5.0,49,0.00,,,0.00,weatherlink.com 1.10,2019-03-19 09:15:50,
2019-03-19 10:20:50,51.4,33.0,30.25,NNE,20,1.0,5.0,49,0.00,,,0.00,weatherlink.com 1.10,2019-03-19 09:20:50,
2019-03-19 10:25:51,51.9,32.0,30.25,NNE,24,0.0,5.0,47,0.00,,,0.00,weatherlink.com 1.10,2019-03-19 09:25:51,
2019-03-19 10:30:53,52.4,32.0,30.25,NE,52,2.0,5.0,46,0.00,,,0.00,weatherlink.com 1.10,2019-03-19 09:30:53,
2019-03-19 10:35:53,52.6,34.0,30.25,ENE,67,1.0,5.0,50,0.00,,,0.00,weatherlink.com 1.10,2019-03-19 09:35:53,
2019-03-19 10:40:54,53.1,34.0,30.25,SSE,157,0.0,4.0,49,0.00,,,0.00,weatherlink.com 1.10,2019-03-19 09:40:54,
2019-03-19 10:45:56,53.4,34.0,30.25,SSE,166,4.0,4.0,48,0.00,,,0.00,weatherlink.com 1.10,2019-03-19 09:45:56,
2019-03-19 10:50:57,53.6,34.0,30.25,SSE,158,1.0,5.0,47,0.00,,,0.00,weatherlink.com 1.10,2019-03-19 09:50:57,
2019-03-19 10:55:57,53.2,33.0,30.25,SE,132,3.0,7.0,46,0.00,,,0.00,weatherlink.com 1.10,2019-03-19 09:55:57,
2019-03-19 11:00:57,52.8,34.0,30.25,SSE,157,3.0,7.0,50,0.00,,,0.00,weatherlink.com 1.10,2019-03-19 10:00:57,
2019-03-19 11:05:58,52.7,34.0,30.25,SE,130,4.0,6.0,50,0.00,,,0.00,weatherlink.com 1.10,2019-03-19 10:05:58,
2019-03-19 11:10:58,52.9,33.0,30.25,NE,50,0.0,6.0,48,0.00,,,0.00,weatherlink.com 1.10,2019-03-19 10:10:58,
2019-03-19 11:15:58,53.2,36.0,30.25,ENE,78,0.0,6.0,52,0.00,,,0.00,weatherlink.com 1.10,2019-03-19 10:15:58,
2019-03-19 11:20:58,53.3,34.0,30.25,NE,52,2.0,5.0,48,0.00,,,0.00,weatherlink.com 1.10,2019-03-19 10:20:58,
2019-03-19 11:25:59,53.3,35.0,30.25,NE,43,0.0,5.0,50,0.00,,,0.00,weatherlink.com 1.10,2019-03-19 10:25:59,
2019-03-19 11:30:59,53.4,33.0,30.25,SE,140,2.0,5.0,46,0.00,,,0.00,weatherlink.com 1.10,2019-03-19 10:30:59,
2019-03-19 11:35:59,53.4,33.0,30.25,East,93,2.0,6.0,47,0.00,,,0.00,weatherlink.com 1.10,2019-03-19 10:35:59,
2019-03-19 11:45:01,54.3,34.0,30.25,SE,145,2.0,6.0,46,0.00,,,0.00,weatherlink.com 1.10,2019-03-19 10:45:01,
2019-03-19 11:50:02,54.5,33.0,30.25,ENE,71,0.0,6.0,45,0.00,,,0.00,weatherlink.com 1.10,2019-03-19 10:50:02,
2019-03-19 11:55:02,54.5,33.0,30.25,ESE,103,0.0,4.0,44,0.00,,,0.00,weatherlink.com 1.10,2019-03-19 10:55:02,
2019-03-19 12:00:03,54.5,33.0,30.25,NNE,33,1.0,5.0,44,0.00,,,0.00,weatherlink.com 1.10,2019-03-19 11:00:03,
2019-03-19 12:05:02,54.4,33.0,30.25,SE,132,2.0,5.0,45,0.00,,,0.00,weatherlink.com 1.10,2019-03-19 11:05:02,
2019-03-19 12:10:03,54.1,35.0,30.25,South,171,2.0,8.0,48,0.00,,,0.00,weatherlink.com 1.10,2019-03-19 11:10:03,
2019-03-19 12:15:03,53.7,34.0,30.25,SSE,155,1.0,8.0,47,0.00,,,0.00,weatherlink.com 1.10,2019-03-19 11:15:03,
2019-03-19 12:20:03,53.5,34.0,30.25,SE,128,2.0,7.0,48,0.00,,,0.00,weatherlink.com 1.10,2019-03-19 11:20:03,
2019-03-19 12:25:03,53.6,33.0,30.25,SSE,161,2.0,7.0,46,0.00,,,0.00,weatherlink.com 1.10,2019-03-19 11:25:03,
2019-03-19 12:30:04,53.8,33.0,30.25,South,171,0.0,7.0,45,0.00,,,0.00,weatherlink.com 1.10,2019-03-19 11:30:04,
2019-03-19 12:35:04,53.9,34.0,30.24,SE,140,3.0,6.0,47,0.00,,,0.00,weatherlink.com 1.10,2019-03-19 11:35:04,
2019-03-19 12:40:04,54.4,36.0,30.24,ESE,121,1.0,7.0,50,0.00,,,0.00,weatherlink.com 1.10,2019-03-19 11:40:04,
2019-03-19 12:45:04,54.6,33.0,30.24,SSE,165,2.0,7.0,45,0.00,,,0.00,weatherlink.com 1.10,2019-03-19 11:45:04,
2019-03-19 12:50:04,54.4,34.0,30.24,SSE,167,0.0,9.0,47,0.00,,,0.00,weatherlink.com 1.10,2019-03-19 11:50:04,
2019-03-19 12:55:04,54.5,34.0,30.24,ESE,117,2.0,9.0,46,0.00,,,0.00,weatherlink.com 1.10,2019-03-19 11:55:04,
2019-03-19 13:00:04,54.5,35.0,30.24,SE,144,6.0,6.0,49,0.00,,,0.00,weatherlink.com 1.10,2019-03-19 12:00:04,
2019-03-19 13:05:04,54.2,34.0,30.24,ESE,105,0.0,7.0,47,0.00,,,0.00,weatherlink.com 1.10,2019-03-19 12:05:04,
2019-03-19 13:10:04,54.1,34.0,30.24,NE,45,1.0,6.0,46,0.00,,,0.00,weatherlink.com 1.10,2019-03-19 12:10:04,
2019-03-19 13:15:05,54.4,35.0,30.24,NNE,22,0.0,5.0,49,0.00,,,0.00,weatherlink.com 1.10,2019-03-19 12:15:05,
2019-03-19 13:20:05,54.8,35.0,30.23,SE,145,1.0,6.0,47,0.00,,,0.00,weatherlink.com 1.10,2019-03-19 12:20:05,
2019-03-19 13:25:06,54.9,35.0,30.23,SSE,161,2.0,6.0,47,0.00,,,0.00,weatherlink.com 1.10,2019-03-19 12:25:06,
2019-03-19 13:30:06,54.7,34.0,30.23,SE,143,2.0,6.0,46,0.00,,,0.00,weatherlink.com 1.10,2019-03-19 12:30:06,
2019-03-19 13:35:06,54.6,34.0,30.23,SSE,163,3.0,8.0,46,0.00,,,0.00,weatherlink.com 1.10,2019-03-19 12:35:06,
2019-03-19 13:40:06,54.7,34.0,30.23,South,175,3.0,8.0,46,0.00,,,0.00,weatherlink.com 1.10,2019-03-19 12:40:06,
2019-03-19 13:45:07,54.8,34.0,30.23,East,96,0.0,9.0,46,0.00,,,0.00,weatherlink.com 1.10,2019-03-19 12:45:07,
2019-03-19 13:50:07,55.0,34.0,30.23,SSE,155,6.0,8.0,46,0.00,,,0.00,weatherlink.com 1.10,2019-03-19 12:50:07,
2019-03-19 13:55:07,54.4,33.0,30.23,East,101,0.0,7.0,44,0.00,,,0.00,weatherlink.com 1.10,2019-03-19 12:55:07,
2019-03-19 14:00:07,54.1,34.0,30.23,SSW,192,1.0,6.0,46,0.00,,,0.00,weatherlink.com 1.10,2019-03-19 13:00:07,
2019-03-19 14:05:07,54.1,32.0,30.24,SW,227,2.0,6.0,44,0.00,,,0.00,weatherlink.com 1.10,2019-03-19 13:05:07,
2019-03-19 14:10:07,54.3,33.0,30.23,SE,136,2.0,7.0,44,0.00,,,0.00,weatherlink.com 1.10,2019-03-19 13:10:07,
2019-03-19 14:15:08,54.0,33.0,30.23,SE,126,1.0,7.0,45,0.00,,,0.00,weatherlink.com 1.10,2019-03-19 13:15:08,
2019-03-19 14:20:08,53.8,32.0,30.23,NE,39,0.0,6.0,43,0.00,,,0.00,weatherlink.com 1.10,2019-03-19 13:20:08,
2019-03-19 14:25:08,53.6,33.0,30.23,ENE,64,4.0,5.0,45,0.00,,,0.00,weatherlink.com 1.10,2019-03-19 13:25:08,
2019-03-19 14:30:09,53.5,31.0,30.23,ESE,106,1.0,5.0,43,0.00,,,0.00,weatherlink.com 1.10,2019-03-19 13:30:09,
2019-03-19 14:35:08,53.7,33.0,30.23,WNW,283,0.0,2.0,45,0.00,,,0.00,weatherlink.com 1.10,2019-03-19 13:35:08,
2019-03-19 14:40:09,54.0,33.0,30.23,SE,138,0.0,3.0,46,0.00,,,0.00,weatherlink.com 1.10,2019-03-19 13:40:09,
2019-03-19 14:45:08,53.9,32.0,30.23,ESE,102,0.0,5.0,44,0.00,,,0.00,weatherlink.com 1.10,2019-03-19 13:45:08,
2019-03-19 14:50:09,53.6,32.0,30.23,WSW,242,2.0,5.0,44,0.00,,,0.00,weatherlink.com 1.10,2019-03-19 13:50:09,
2019-03-19 14:55:09,53.6,32.0,30.23,SSW,194,0.0,3.0,44,0.00,,,0.00,weatherlink.com 1.10,2019-03-19 13:55:09,
2019-03-19 15:00:09,53.6,33.0,30.23,SSW,212,6.0,6.0,45,0.00,,,0.00,weatherlink.com 1.10,2019-03-19 14:00:09,
2019-03-19 15:05:10,53.5,32.0,30.23,East,82,1.0,6.0,44,0.00,,,0.00,weatherlink.com 1.10,2019-03-19 14:05:10,
2019-03-19 15:10:10,53.4,32.0,30.23,NNE,32,0.0,3.0,44,0.00,,,0.00,weatherlink.com 1.10,2019-03-19 14:10:10,
2019-03-19 15:15:10,53.5,32.0,30.23,WNW,301,0.0,2.0,44,0.00,,,0.00,weatherlink.com 1.10,2019-03-19 14:15:10,
2019-03-19 15:20:10,53.9,33.0,30.23,NW,326,0.0,2.0,46,0.00,,,0.00,weatherlink.com 1.10,2019-03-19 14:20:10,
2019-03-19 15:25:11,54.2,33.0,30.23,NNE,25,0.0,2.0,44,0.00,,,0.00,weatherlink.com 1.10,2019-03-19 14:25:11,
2019-03-19 15:30:11,54.1,31.0,30.23,ENE,69,1.0,3.0,42,0.00,,,0.00,weatherlink.com 1.10,2019-03-19 14:30:11,
2019-03-19 15:35:11,54.2,34.0,30.23,SSW,208,0.0,4.0,46,0.00,,,0.00,weatherlink.com 1.10,2019-03-19 14:35:11,
2019-03-19 15:40:11,54.5,34.0,30.23,NNE,30,1.0,6.0,46,0.00,,,0.00,weatherlink.com 1.10,2019-03-19 14:40:11,
2019-03-19 15:45:11,55.0,33.0,30.23,NNE,27,0.0,4.0,43,0.00,,,0.00,weatherlink.com 1.10,2019-03-19 14:45:11,
2019-03-19 15:50:12,55.4,33.0,30.23,East,86,0.0,2.0,43,0.00,,,0.00,weatherlink.com 1.10,2019-03-19 14:50:12,
2019-03-19 15:55:13,55.4,34.0,30.23,SSE,165,2.0,3.0,44,0.00,,,0.00,weatherlink.com 1.10,2019-03-19 14:55:13,
2019-03-19 16:00:13,55.0,33.0,30.23,SSE,158,1.0,5.0,43,0.00,,,0.00,weatherlink.com 1.10,2019-03-19 15:00:13,
2019-03-19 16:05:13,54.8,31.0,30.23,NNE,23,0.0,5.0,41,0.00,,,0.00,weatherlink.com 1.10,2019-03-19 15:05:13,
2019-03-19 16:10:13,54.9,33.0,30.23,NNE,24,0.0,3.0,43,0.00,,,0.00,weatherlink.com 1.10,2019-03-19 15:10:13,
2019-03-19 16:15:14,55.2,32.0,30.23,SSE,168,0.0,3.0,42,0.00,,,0.00,weatherlink.com 1.10,2019-03-19 15:15:14,
2019-03-19 16:20:14,55.1,32.0,30.23,NE,54,2.0,6.0,42,0.00,,,0.00,weatherlink.com 1.10,2019-03-19 15:20:14,
2019-03-19 16:25:14,54.6,32.0,30.23,South,182,0.0,6.0,42,0.00,,,0.00,weatherlink.com 1.10,2019-03-19 15:25:14,
2019-03-19 16:30:15,54.5,32.0,30.23,SSE,159,1.0,4.0,42,0.00,,,0.00,weatherlink.com 1.10,2019-03-19 15:30:15,
2019-03-19 16:35:14,54.5,33.0,30.23,SE,140,2.0,4.0,44,0.00,,,0.00,weatherlink.com 1.10,2019-03-19 15:35:14,
2019-03-19 16:40:15,54.4,32.0,30.23,ESE,118,0.0,4.0,42,0.00,,,0.00,weatherlink.com 1.10,2019-03-19 15:40:15,
2019-03-19 16:45:15,54.5,32.0,30.23,SSE,148,0.0,3.0,42,0.00,,,0.00,weatherlink.com 1.10,2019-03-19 15:45:15,
2019-03-19 16:50:15,54.5,31.0,30.24,East,89,0.0,5.0,41,0.00,,,0.00,weatherlink.com 1.10,2019-03-19 15:50:15,
2019-03-19 16:55:15,54.6,32.0,30.23,South,180,0.0,4.0,42,0.00,,,0.00,weatherlink.com 1.10,2019-03-19 15:55:15,
2019-03-19 17:00:15,54.7,32.0,30.24,South,180,0.0,4.0,42,0.00,,,0.00,weatherlink.com 1.10,2019-03-19 16:00:15,